Regional Weather Roundup
Issued by NWS Glasgow, MT

Home | Current Version | Previous Version | Text Only | Print | Product List | Glossary On
Versions: 1 2 3 4 5 6 7 8 9 10 11 12 13 14 15 16 17 18 19 20 21 22 23 24 25 26 27 28 29 30 31 32 33 34 35 36 37 38 39 40 41 42 43 44 45 46 47 48 49 50
975
ASUS45 KGGW 171615
RWRGGW
HOURLY REGIONAL WEATHER ROUNDUP FOR NORTHEAST MONTANA
NATIONAL WEATHER SERVICE GLASGOW MONTANA
900 AM MST TUE JAN 17 2017

NOTE: "FAIR" INDICATES FEW OR NO CLOUDS BELOW 12,000 FEET WITH NO
SIGNIFICANT WEATHER AND/OR OBSTRUCTIONS TO VISISBILITY.

NORTHEAST MONTANA


CITY           SKY/WX    TMP DP  RH WIND       PRES   REMARKS
GLASGOW        CLOUDY    16  10  77 S12       29.73F
PLENTYWOOD       N/A     16  11  80 SE8         N/A
WOLF POINT     CLOUDY     4  -1  80 CALM      29.78S
JORDAN           N/A     31  20  63 W10       29.78R
WINNETT          N/A     29  20  69 S3          N/A
SIDNEY         CLOUDY    15   9  76 S14       29.82R
GLENDIVE       CLOUDY    13   6  74 S18       29.82R WCI  -4
MALTA            N/A     17  13  84 NE1         N/A
SCOBEY           N/A     24   6  46 SE9       29.69F

FORT PECK REPORTS


CITY           SKY/WX    TMP DP  RH WIND       PRES   REMARKS
FORT PECK        N/A     27  18  69 SE10        N/A
THE PINES        N/A     31  18  58 SW3         N/A

SOUTHEAST MONTANA


CITY           SKY/WX    TMP DP  RH WIND       PRES   REMARKS
BILLINGS       CLOUDY    29  13  51 SW26G35   29.88S
MILES CITY     CLOUDY    14   6  70 S14       29.86S WCI  -1
BAKER          CLOUDY    27  12  53 SW21      29.84S
LIVINGSTON     CLOUDY    36  16  44 SW31G39   29.94

CENTRAL MONTANA


CITY           SKY/WX    TMP DP  RH WIND       PRES   REMARKS
HAVRE          CLOUDY    36  25  64 SW31      29.75R
LEWISTOWN      CLOUDY    37  22  54 SW20      29.82R
GREAT FALLS    CLOUDY    32  16  51 SW28      29.84R
CUT BANK       CLOUDY    40  26  57 W26       29.76R
HELENA         CLOUDY     1  -3  83 CALM      30.09R FOG
BUTTE          CLOUDY     0  -5  79 CALM      30.05R
BOZEMAN        CLOUDY     8   3  80 S6        30.08S

WESTERN MONTANA


CITY           SKY/WX    TMP DP  RH WIND       PRES   REMARKS
MISSOULA       CLOUDY    -1  -4  87 CALM      30.16S FOG
KALISPELL      NOT AVBL

NORTH DAKOTA


CITY           SKY/WX    TMP DP  RH WIND       PRES   REMARKS
WILLISTON      CLOUDY    17   9  70 S7        29.79F
DICKINSON      CLOUDY    20  10  65 S15       29.81S
MINOT          CLOUDY    19  11  70 S8        29.79S
BISMARCK       CLOUDY     5   2  87 SE5       29.94R

SOUTHERN SASKATCHEWAN


CITY           SKY/WX    TMP DP  RH WIND       PRES   REMARKS
REGINA         MOCLDY    28  21  74 S9        29.55F
MOOSE JAW      MOCLDY    36  23  60 SW32G38   29.51F
ESTEVAN        MOCLDY    18  10  73 SW17G26   29.67F
SWIFT CURRENT  CLEAR     37  28  70 SW22      29.54S





USA.gov is the U.S. government's official web portal to all federal, state and local government web resources and services.